Tracking 29892 objects as of 21-Nov-2024
HD Live streaming from Space Station
objects crossing your sky now

FENGYUN 1C DEB

Track FENGYUN 1C DEB now!
10-day predictions


NORAD ID: 30514
Int'l Code: 1999-025AJC
Perigee: 663.2 km
Apogee: 920.0 km
Inclination: 98.5 °
Period: 100.5 minutes
Semi major axis: 7162 km
RCS: 0.0192 m2 (small)
Launch date: May 10, 1999
Source: People's Republic of China (PRC)
Launch site: Taiyaun Space Center, China (TSC)

Note: This is SATELLITE DEBRIS
Your satellite tracking list
Your tracking list is empty




NASA's NSSDC Master Catalog

Two Line Element Set (TLE):
1 30514U 99025AJC 24325.75013863  .00002922  00000-0  92289-3 0  9995
2 30514  98.4511 353.0375 0179253 163.1292 197.5960 14.32166336926818
Source of the keplerian elements: AFSPC